Location: G�ndlingen
(48.0142°N, 7.6396°E)
Time: 01:12:24
(UTC+00:00)

GP-B - Pass Details

Date: 05 July 2020
Orbit: 631 x 635 km, 89.8° (Epoch: 11 August)

Event Time Altitude Azimuth Distance (km) Brightness Sun altitude
Rises 23:40:50 0° 353° (N) 2,943 8.1 -19.3°
Reaches altitude 10° 23:43:13 10° 344° (NNW) 2,029 6.8 -19.3°
Maximum altitude 23:47:13 34° 281° (W) 1,059 4.3 -19.3°
Enters shadow 23:48:53 25° 240° (WSW) 1,278 4.4 -19.2°
